When you browse on this site, cookies collect data to enhance your experience and personalize the content and advertising you see.
Visit our Privacy Policy to learn more. By continuing to use the site, you agree to this use of cookies and data.
  • In United Kingdom
  • List of Countries
  • For 7 days
  • Water Temperature
  • Satellite Maps
  • Weather Map
  • Weather Widgets
  • user-avatar
    Login

    Hourly Weather Campo Grande

    Today, 21 January, Monday

    Time Temperature Precipitation Wind Pressure Humidity
    00:00 +24°C° 0 mm 1 mps 710 mmHg 84%
    01:00 +24°C° 0 mm 1 mps 710 mmHg 84%
    02:00 +24°C° 0 mm 1 mps 710 mmHg 84%
    03:00 +24°C° 0 mm 1 mps 710 mmHg 84%
    04:00 +24°C° 0 mm 1 mps 710 mmHg 85%
    05:00 +23°C° 0 mm 1 mps 710 mmHg 85%
    06:00 +25°C° 0 mm 1 mps 711 mmHg 79%
    07:00 +27°C° 0 mm 1 mps 712 mmHg 73%
    08:00 +29°C° 0 mm 2 mps 712 mmHg 65%
    09:00 +30°C° 0 mm 2 mps 712 mmHg 59%
    10:00 +33°C° 0 mm 3 mps 712 mmHg 53%
    11:00 +34°C° 0 mm 3 mps 712 mmHg 47%
    12:00 +34°C° 0 mm 3 mps 712 mmHg 49%
    13:00 +34°C° 0 mm 3 mps 711 mmHg 50%
    14:00 +34°C° 0 mm 2 mps 711 mmHg 51%
    15:00 +34°C° 0 mm 2 mps 711 mmHg 52%
    16:00 +34°C° 0 mm 2 mps 710 mmHg 52%
    17:00 +34°C° 0 mm 2 mps 710 mmHg 53%
    18:00 +31°C° 0 mm 1 mps 710 mmHg 56%
    19:00 +29°C° 0 mm 1 mps 710 mmHg 58%
    20:00 +26°C° 0 mm 0 mps 711 mmHg 60%
    21:00 +26°C° 0 mm 0 mps 711 mmHg 61%
    22:00 +25°C° 0 mm 0 mps 711 mmHg 62%
    23:00 +25°C° 0 mm 0 mps 711 mmHg 62%

    Tomorrow, 22 January, Tuesday

    Time Temperature Precipitation Wind Pressure Humidity
    00:00 +27°C° 0 mm 1 mps 711 mmHg 63%
    01:00 +27°C° 0 mm 1 mps 711 mmHg 64%
    02:00 +26°C° 0 mm 1 mps 711 mmHg 65%
    03:00 +26°C° 0 mm 1 mps 711 mmHg 66%
    04:00 +26°C° 0 mm 1 mps 711 mmHg 67%
    05:00 +26°C° 0 mm 1 mps 711 mmHg 68%
    06:00 +27°C° 0 mm 1 mps 712 mmHg 65%
    07:00 +29°C° 0 mm 1 mps 712 mmHg 62%
    08:00 +31°C° 0 mm 2 mps 713 mmHg 59%
    09:00 +32°C° 0 mm 2 mps 713 mmHg 55%
    10:00 +35°C° 0 mm 2 mps 713 mmHg 51%
    11:00 +36°C° 0 mm 2 mps 713 mmHg 46%
    12:00 +36°C° 0 mm 2 mps 712 mmHg 47%
    13:00 +35°C° 0 mm 1 mps 711 mmHg 47%
    14:00 +35°C° 0 mm 1 mps 711 mmHg 48%
    15:00 +35°C° 0 mm 1 mps 710 mmHg 49%
    16:00 +32°C° 0 mm 0 mps 710 mmHg 51%
    17:00 +32°C° 0 mm 0 mps 709 mmHg 53%
    18:00 +31°C° 0 mm 0 mps 710 mmHg 55%
    19:00 +29°C° 0 mm 0 mps 710 mmHg 56%
    20:00 +29°C° 0 mm 1 mps 710 mmHg 58%
    21:00 +29°C° 0 mm 1 mps 710 mmHg 58%
    22:00 +29°C° 0 mm 1 mps 711 mmHg 58%
    23:00 +29°C° 0 mm 1 mps 711 mmHg 59%

    Day after tomorrow, 23 January, Wednesday

    Time Temperature Precipitation Wind Pressure Humidity
    00:00 +29°C° 0 mm 2 mps 710 mmHg 61%
    01:00 +28°C° 0 mm 2 mps 710 mmHg 63%
    02:00 +27°C° 0 mm 2 mps 710 mmHg 66%
    03:00 +27°C° 0 mm 3 mps 710 mmHg 67%
    04:00 +27°C° 0 mm 3 mps 710 mmHg 69%
    05:00 +26°C° 0 mm 3 mps 710 mmHg 70%
    06:00 +28°C° 0 mm 3 mps 711 mmHg 67%
    07:00 +30°C° 0 mm 3 mps 711 mmHg 63%
    08:00 +32°C° 0 mm 4 mps 712 mmHg 60%
    09:00 +34°C° 0 mm 3 mps 712 mmHg 55%
    10:00 +35°C° 0 mm 3 mps 712 mmHg 50%
    11:00 +37°C° 0 mm 3 mps 712 mmHg 44%
    12:00 +37°C° 0 mm 2 mps 712 mmHg 44%
    13:00 +37°C° 0 mm 2 mps 711 mmHg 43%
    14:00 +37°C° 0 mm 2 mps 710 mmHg 42%
    15:00 +37°C° 0 mm 2 mps 710 mmHg 44%
    16:00 +36°C° 0 mm 2 mps 709 mmHg 47%
    17:00 +34°C° 0 mm 1 mps 709 mmHg 49%
    18:00 +34°C° 0 mm 2 mps 709 mmHg 50%
    19:00 +32°C° 0 mm 2 mps 709 mmHg 52%
    20:00 +31°C° 0 mm 2 mps 710 mmHg 53%
    21:00 +30°C° 0 mm 2 mps 710 mmHg 55%
    22:00 +30°C° 0 mm 2 mps 710 mmHg 57%
    23:00 +29°C° 0 mm 2 mps 710 mmHg 59%

    24 January, Thursday

    Time Temperature Precipitation Wind Pressure Humidity
    00:00 +29°C° 0 mm 2 mps 710 mmHg 61%
    01:00 +28°C° 0 mm 3 mps 709 mmHg 64%
    02:00 +28°C° 0 mm 3 mps 709 mmHg 66%
    03:00 +28°C° 0 mm 2 mps 709 mmHg 68%
    04:00 +27°C° 0 mm 2 mps 709 mmHg 70%
    05:00 +27°C° 0 mm 2 mps 709 mmHg 72%
    06:00 +29°C° 0 mm 2 mps 710 mmHg 69%
    07:00 +30°C° 0 mm 2 mps 710 mmHg 65%
    08:00 +32°C° 0 mm 2 mps 711 mmHg 62%
    09:00 +34°C° 0.4 mm 2 mps 711 mmHg 57%
    10:00 +36°C° 0.4 mm 2 mps 711 mmHg 51%
    11:00 +36°C° 0.4 mm 1 mps 711 mmHg 46%
    12:00 +36°C° 0 mm 1 mps 711 mmHg 45%
    13:00 +36°C° 0 mm 1 mps 710 mmHg 44%
    14:00 +34°C° 0 mm 0 mps 709 mmHg 44%
    15:00 +36°C° 0 mm 1 mps 709 mmHg 46%
    16:00 +35°C° 0 mm 1 mps 708 mmHg 48%
    17:00 +35°C° 0 mm 1 mps 708 mmHg 51%
    18:00 +33°C° 0 mm 1 mps 708 mmHg 52%
    19:00 +32°C° 0 mm 1 mps 709 mmHg 54%
    20:00 +30°C° 0 mm 2 mps 709 mmHg 56%
    21:00 +30°C° 0 mm 2 mps 709 mmHg 57%
    22:00 +30°C° 0 mm 2 mps 709 mmHg 58%
    23:00 +29°C° 0 mm 2 mps 709 mmHg 59%

    25 January, Friday

    Time Temperature Precipitation Wind Pressure Humidity
    00:00 +29°C° 0 mm 2 mps 709 mmHg 62%
    01:00 +28°C° 0 mm 2 mps 708 mmHg 64%
    02:00 +28°C° 0 mm 2 mps 708 mmHg 66%
    03:00 +27°C° 0 mm 2 mps 708 mmHg 68%
    04:00 +27°C° 0 mm 2 mps 708 mmHg 69%
    05:00 +27°C° 0 mm 2 mps 708 mmHg 71%
    06:00 +28°C° 0.1 mm 2 mps 709 mmHg 67%
    07:00 +30°C° 0.1 mm 2 mps 709 mmHg 64%
    08:00 +32°C° 0.1 mm 2 mps 710 mmHg 60%
    09:00 +34°C° 0.1 mm 2 mps 710 mmHg 54%
    10:00 +35°C° 0.1 mm 2 mps 710 mmHg 49%
    11:00 +37°C° 0.1 mm 2 mps 710 mmHg 43%
    12:00 +35°C° 0 mm 1 mps 709 mmHg 47%
    13:00 +34°C° 0 mm 1 mps 708 mmHg 52%
    14:00 +33°C° 0 mm 1 mps 708 mmHg 56%
    15:00 +32°C° 0.3 mm 1 mps 707 mmHg 60%
    16:00 +31°C° 0.3 mm 1 mps 707 mmHg 64%
    17:00 +30°C° 0.3 mm 1 mps 707 mmHg 67%
    18:00 +29°C° 1.8 mm 2 mps 707 mmHg 72%
    19:00 +28°C° 1.8 mm 2 mps 707 mmHg 77%
    20:00 +27°C° 1.8 mm 2 mps 707 mmHg 82%
    21:00 +27°C° 1.1 mm 3 mps 708 mmHg 82%
    22:00 +27°C° 1.1 mm 3 mps 708 mmHg 82%
    23:00 +27°C° 1.1 mm 4 mps 709 mmHg 82%

    26 January, Saturday

    Time Temperature Precipitation Wind Pressure Humidity
    00:00 +26°C° 0 mm 3 mps 708 mmHg 83%
    01:00 +26°C° 0 mm 2 mps 708 mmHg 84%
    02:00 +25°C° 0 mm 1 mps 708 mmHg 85%
    03:00 +25°C° 0.4 mm 1 mps 708 mmHg 86%
    04:00 +25°C° 0.4 mm 1 mps 708 mmHg 87%
    05:00 +25°C° 0.4 mm 1 mps 708 mmHg 87%
    06:00 +26°C° 0.1 mm 1 mps 708 mmHg 82%
    07:00 +28°C° 0.1 mm 1 mps 709 mmHg 77%
    08:00 +29°C° 0.1 mm 1 mps 710 mmHg 72%
    09:00 +30°C° 2.1 mm 2 mps 710 mmHg 67%
    10:00 +31°C° 2.1 mm 2 mps 710 mmHg 63%
    11:00 +32°C° 2.1 mm 2 mps 710 mmHg 58%
    12:00 +32°C° 1.7 mm 2 mps 709 mmHg 61%
    13:00 +31°C° 1.7 mm 2 mps 709 mmHg 64%
    14:00 +31°C° 1.7 mm 2 mps 708 mmHg 67%
    15:00 +31°C° 0.7 mm 2 mps 708 mmHg 66%
    16:00 +31°C° 0.7 mm 2 mps 707 mmHg 65%
    17:00 +32°C° 0.7 mm 1 mps 707 mmHg 64%
    18:00 +30°C° 0.5 mm 2 mps 707 mmHg 70%
    19:00 +28°C° 0.5 mm 3 mps 708 mmHg 75%
    20:00 +26°C° 0.5 mm 4 mps 708 mmHg 81%
    21:00 +26°C° 0 mm 4 mps 708 mmHg 82%
    22:00 +26°C° 0 mm 4 mps 708 mmHg 83%
    23:00 +25°C° 0 mm 4 mps 709 mmHg 84%
    Show more